Regional Weather Roundup
Issued by NWS

Home | Current Version | Previous Version | Text Only | Print | Product List | Glossary On
Versions: 1 2 3 4 5 6 7 8 9 10 11 12 13 14 15 16 17 18 19 20 21 22 23 24 25 26 27 28 29 30 31 32 33 34 35 36 37 38 39 40 41 42 43 44 45 46 47 48 49 50
576
ASUS44 KLIX 181605
RWRLA
LOUISIANA WEATHER ROUNDUP
NATIONAL WEATHER SERVICE NEW ORLEANS LA
1000 AM CST THU DEC 18 2014

NOTE: "FAIR" INDICATES FEW OR NO CLOUDS BELOW 12,000 FEET WITH NO
      SIGNIFICANT WEATHER AND/OR OBSTRUCTIONS TO VISIBILITY.
      SKY/WX - SKY CONDITION AND SIGNIFICANT WEATHER.
      TMP - AIR TEMPERATURE.    DP   - DEWPOINT TEMPERATURE.
      RH  - RELATIVE HUMIDITY.  PRES - PRESSURE.
      HX  - HEAT INDEX.         WCI  - WIND CHILL INDEX.

*  THESE STATIONS ARE NOT NWS OR FAA STATIONS AND ARE NOT UNDER
   NWS QUALITY CONTROL.

LAZ040-048-061>063-065-066-069-181700-
SOUTHEAST LOUISIANA

CITY           SKY/WX    TMP DP  RH WIND       PRES   REMARKS
N.O. AUDUBON   NOT AVBL
N.O. INTL ARPT PTSUNNY   64  50  60 SE9       30.19R
N.O. LAKEFRONT MOSUNNY   62  49  62 SE15      30.20S
N.O. DOWNTOWN* FAIR      61  48  63 SE3       30.20S
SLIDELL        MOSUNNY   58  44  60 SE9       30.20S
BATON ROUGE    CLOUDY    59  47  64 E8        30.17S
BOOTHVILLE     NOT AVBL
BELLE CHASSE   PTSUNNY   63  51  65 E12       30.20
BOGALUSA*        N/A     56  42  60 E5        30.23R
GALLIANO*      MOSUNNY   66  54  65 MISG      30.20R
NEW ROADS*     CLOUDY    55  46  72 E8        30.17S
GONZALES*      CLOUDY    60  52  73 SE6       30.17F
HAMMOND*       NOT AVBL
HOUMA*         SUNNY     64  55  72 E8        30.18R
PORT FOURCHON* SUNNY     64  57  77 E13G20    30.21S

$$

LAZ041-044-053-054-181700-
SOUTHWEST LOUISIANA

CITY           SKY/WX    TMP DP  RH WIND       PRES   REMARKS
LAKE CHARLES   CLOUDY    61  56  83 E6        30.13R
LAFAYETTE      CLOUDY    59  49  69 VRB3      30.16R
PATTERSON      PTSUNNY   63  52  67 SE6       30.17S
SALT POINT     NOT AVBL
NEW IBERIA     CLOUDY    61  51  70 SE9       30.16S
CHENAULT AIRPK CLOUDY    57  54  88 E6        30.13R

$$

LAZ027-028-181700-
CENTRAL LOUISIANA

CITY           SKY/WX    TMP DP  RH WIND       PRES   REMARKS
FORT POLK      RAIN      48  48 100 NE8       30.16R FOG
ALEXANDRIA INT LGT RAIN  49  48  97 NE5       30.17S
ALEXANDRIA     HVY RAIN  50  46  86 VRB3      30.19R

$$

LAZ001-002-181700-
NORTHWEST LOUISIANA

CITY           SKY/WX    TMP DP  RH WIND       PRES   REMARKS
SHREVEPORT     CLOUDY    47  44  90 E6        30.18S
BARKSDALE AFB  NOT AVBL
DTN SHREVEPORT CLOUDY    46  42  86 E8        30.19S

$$

LAZ014-016-181700-
NORTHEAST LOUISIANA

CITY           SKY/WX    TMP DP  RH WIND       PRES   REMARKS
MONROE         CLOUDY    46  44  93 E6        30.23R
TALLULAH       CLOUDY    48  44  86 NE7       30.22F

$$




USA.gov is the U.S. government's official web portal to all federal, state and local government web resources and services.